CET,Max TemperatureF,Mean TemperatureF,Min TemperatureF,Max Dew PointF,MeanDew PointF,Min DewpointF,Max Humidity, Mean Humidity, Min Humidity, Max Sea Level PressureIn, Mean Sea Level PressureIn, Min Sea Level PressureIn, Max VisibilityMiles, Mean VisibilityMiles, Min VisibilityMiles, Max Wind SpeedMPH, Mean Wind SpeedMPH, Max Gust SpeedMPH,PrecipitationIn, CloudCover, Events, WindDirDegrees
2012-12-1,53,48,44,48,45,39,93,81,71,29.80,29.78,29.74,6,6,3,10,4,,0.00,3,Rain,104
2012-12-2,55,50,46,50,47,45,100,91,77,29.77,29.73,29.68,6,6,3,7,2,,0.00,3,Rain-Thunderstorm,316
2012-12-3,50,42,33,37,34,27,100,71,40,30.06,29.99,29.86,6,6,6,18,9,25,0.00,1,,349
2012-12-4,57,46,35,52,45,34,100,84,62,29.89,29.71,29.56,6,5,2,16,4,,0.00,3,Rain,243
2012-12-5,53,45,37,45,38,32,100,86,58,29.68,29.63,29.56,6,3,0,14,4,32,0.00,3,Fog-Rain-Hail-Thunderstorm,12
2012-12-6,50,42,33,39,34,27,100,81,49,29.92,29.82,29.74,5,5,5,7,3,,0.00,1,,2
2012-12-7,48,39,30,45,37,30,100,90,66,29.95,29.86,29.68,5,3,0,9,4,,0.00,2,Fog-Rain,110
2012-12-8,46,42,37,39,30,23,100,67,46,29.68,29.60,29.53,6,6,6,22,9,,0.00,1,,349
2012-12-9,46,42,35,25,20,18,65,44,32,30.06,30.00,29.92,6,6,6,23,15,36,0.00,1,,2
2012-12-10,50,40,30,46,38,23,100,87,75,29.92,29.76,29.65,5,3,2,9,2,,0.00,4,Rain,50
2012-12-11,51,42,33,36,32,27,93,69,41,29.95,29.89,29.86,,,,7,4,,0.00,,,3
2012-12-12,48,36,24,34,28,19,100,76,40,30.18,30.10,30.06,5,4,3,6,1,,0.00,,Fog,180
2012-12-13,46,37,28,34,27,21,100,64,37,30.21,30.17,30.15,6,5,4,10,6,,0.00,3,,63
2012-12-14,59,52,46,52,48,43,100,87,77,30.09,30.06,30.04,6,6,4,14,9,,0.00,2,Rain,123
2012-12-15,59,58,57,57,56,54,100,95,88,30.09,30.04,30.01,5,3,1,14,10,,0.00,4,Rain,165
2012-12-16,60,56,50,57,54,50,100,90,82,30.04,29.98,29.95,6,5,2,7,3,,0.00,2,Fog,197
2012-12-17,59,50,39,54,47,37,100,84,63,29.89,29.81,29.74,6,5,2,14,3,,0.00,3,Fog-Rain-Thunderstorm,216
2012-12-18,51,43,35,46,42,36,100,96,76,29.89,29.85,29.80,6,3,0,8,3,,0.00,2,Fog,12
2012-12-19,53,42,30,41,36,30,100,72,54,30.12,30.04,29.98,5,2,0,15,4,,0.00,,Fog,3
2012-12-20,50,41,32,41,35,30,100,76,54,30.15,30.08,30.04,,,,4,1,,0.00,,,-1
2012-12-21,46,44,39,45,42,37,100,92,87,29.89,29.84,29.83,6,4,3,9,4,,0.00,4,Rain,19
2012-12-22,57,48,39,45,39,32,100,70,51,30.12,30.05,29.98,,,,14,6,,0.00,,,359
2012-12-23,53,43,33,46,39,28,100,81,53,30.21,30.15,30.12,6,5,3,5,3,,0.00,3,Fog,354
2012-12-24,59,46,33,52,44,34,100,93,77,30.27,30.23,30.21,6,4,0,6,3,,0.00,2,Fog,355
2012-12-25,59,52,44,52,46,36,100,79,63,30.21,30.13,30.06,6,6,3,9,3,,0.00,2,,135
2012-12-26,64,58,53,55,51,45,94,77,63,30.01,30.00,29.98,6,6,5,10,5,,0.00,4,,197
2012-12-27,53,48,42,52,47,39,100,91,82,30.18,30.13,30.09,4,2,0,8,2,,0.00,2,Fog,147
2012-12-28,60,50,41,52,42,34,100,77,45,30.21,30.10,30.06,4,2,0,15,4,,0.00,,Fog,354
2012-12-29,55,46,35,36,32,25,93,55,37,30.24,30.19,30.15,,,,17,7,,0.00,,,9
2012-12-30,55,42,30,37,31,25,93,67,41,30.24,30.21,30.18,,,,5,2,,0.00,,,335
2012-12-31,57,42,28,39,33,21,100,74,44,30.27,30.21,30.18,5,4,2,2,1,,0.00,,Fog,-1